Location: UBC Liquid-Mirror Observatory
(49.2876°N, 122.5728°W)
Time: 00:58:50
(UTC-08:00)

Daily predictions for brighter satellites

Satellite Brightness Start Highest point End
(mag) Time Altitude Azimuth Time Altitude Azimuth Time Altitude Azimuth
Lacrosse 5 4.4 02:55:46 15° E 02:55:46 15° E 02:57:05 10° ENE
Resurs 1-4 Rocket 4.2 02:48:49 10° NNE 02:50:35 22° NNE 02:50:35 22° NNE
CZ-2D R/B 4.1 02:57:14 10° NNE 02:59:19 24° NNE 02:59:19 24° NNE
ADEOS Rocket 3.5 03:12:59 10° NNE 03:18:22 58° NNE 03:18:22 58° NNE
Okean O Rocket 3.9 03:17:12 10° NE 03:19:20 22° ENE 03:19:20 22° ENE
Cosmos 2369 Rocket 3.2 03:23:11 44° NE 03:23:11 44° NE 03:27:09 10° NNE
Cosmos 2278 Rocket 4.3 03:24:11 17° NNW 03:24:11 17° NNW 03:26:19 10° N
Cosmos 2266 Rocket 4.4 03:43:21 10° N 03:47:48 50° NNW 03:47:48 50° NNW
ATLAS 5 CENTAUR R/B 2.5 03:51:18 53° ENE 03:51:18 53° ENE 03:55:33 10° NE
Cosmos 1943 Rocket 2.4 03:56:39 62° ESE 03:56:49 62° ESE 04:02:19 10° NE
MOS 1 Rocket 3.7 03:51:37 10° NNE 03:56:45 73° ENE 03:56:45 73° ENE
ADEOS II 2.5 04:02:51 10° NNE 04:08:06 60° E 04:09:35 43° SSE
Cosmos 1140 Rocket 3.8 04:04:27 10° NNW 04:09:41 65° ENE 04:14:53 10° SE
CZ-4B R/B 3.4 04:06:24 10° NNE 04:12:02 69° ESE 04:14:01 41° S
Cosmos 2263 4.0 04:14:17 75° NW 04:14:17 75° NW 04:19:51 10° NNE
MOS 1-B 4.4 04:08:34 10° N 04:13:54 60° NW 04:13:54 60° NW
ATLAS CENTAUR R/B 4.4 04:16:13 33° SSW 04:16:13 33° SSW 04:25:32 10° SSE
Lacrosse 5 rocket 2.4 04:20:01 37° ENE 04:20:01 37° ENE 04:22:40 10° E
Okean-O 4.2 04:16:57 10° NNE 04:21:00 33° E 04:25:02 10° SSE
Okean 2 Rocket 3.6 04:26:57 10° N 04:31:19 59° ENE 04:35:40 10° SSE
Cosmos 972 4.5 04:30:44 48° S 04:32:10 82° ESE 04:37:36 10° NNE
Resurs 1-4 Rocket 4.0 04:29:44 10° NNW 04:31:41 17° NNW 04:31:41 17° NNW
Lacrosse 5 1.7 04:34:59 67° SW 04:35:40 89° SE 04:40:47 10° NE
SL-24 R/B 4.1 04:33:00 10° N 04:36:30 63° NNW 04:36:30 63° NNW
Cosmos 1244 Rocket 4.3 04:31:01 10° NNW 04:37:16 79° W 04:43:25 10° S
Cosmos 1703 Rocket 3.5 04:36:44 48° S 04:37:53 79° E 04:42:17 10° NNE
CZ-2D R/B 4.0 04:38:35 10° NNW 04:40:39 16° NW 04:40:39 16° NW
Cosmos 1867 4.2 04:41:45 37° NW 04:42:18 38° NW 04:47:25 10° NNE
CZ-4B R/B 4.0 04:38:36 10° N 04:41:03 32° NNW 04:41:03 32° NNW
Cosmos 2297 Rocket 3.7 04:39:24 10° NNW 04:44:36 35° NE 04:49:46 10° ESE
Meteor 1-14 Rocket 4.1 04:41:52 10° NNW 04:47:43 75° W 04:53:22 10° S
Cosmos 1850 Rocket 4.0 04:42:21 10° NNW 04:47:45 85° ENE 04:53:03 10° SSE
Cosmos 1624 Rocket 4.4 04:48:51 42° WNW 04:49:13 42° WNW 04:54:18 10° NNE
Meteor PRIRODA 3.6 04:45:41 10° NNE 04:49:23 83° ESE 04:50:05 56° S
Cosmos 2056 Rocket 3.8 04:50:49 42° WNW 04:51:11 43° WNW 04:56:12 10° NNE
Cosmos 1954 Rocket 4.2 04:51:29 38° WNW 04:52:50 47° WSW 04:57:54 10° S
IRS-1C Rocket 4.3 04:51:43 10° N 04:56:49 50° WNW 04:58:18 39° WSW
Cosmos 1656 Rocket 3.7 04:53:03 21° SSW 04:56:55 84° ESE 05:02:38 10° NNE
PAYLOAD B 4.4 04:51:53 10° N 04:57:15 52° WNW 04:59:20 34° WSW
Okean O Rocket 2.4 04:53:25 10° N 04:56:48 34° NW 04:56:48 34° NW
Meteor 1-31 Rocket 2.9 04:54:08 10° NNE 04:58:04 75° ESE 05:01:05 16° S
CZ-4B DEB 4.4 04:55:55 10° N 05:01:17 53° WNW 05:03:51 30° SW
GEOS 3 Rocket 4.0 04:56:36 10° S 05:01:20 38° WSW 05:01:52 37° WSW
CZ-4C R/B 2.3 04:58:12 25° SSW 05:01:30 78° SE 05:07:41 10° NE
Cosmos 2219 3.2 04:57:15 10° NW 05:02:49 57° WSW 05:08:19 10° S
ADEOS Rocket 4.3 04:59:20 10° N 05:04:26 23° NW 05:05:19 23° WNW
Cosmos 1420 Rocket 4.1 04:59:35 11° SSW 05:04:34 77° ESE 05:09:47 10° NNE
Cosmos 2227 Rocket 2.8 04:59:40 10° NNW 05:05:18 58° NE 05:10:54 10° SE
Meteor 1-26 Rocket 4.1 05:01:02 15° SSW 05:05:43 66° WNW 05:11:18 10° N
Cosmos 2369 Rocket 3.2 05:04:58 27° WNW 05:06:01 29° NW 05:10:54 10° NNE
COSMO-SKYMED 1 2.9 05:02:03 10° SSE 05:06:21 69° ENE 05:10:42 10° N
Meteor 1-25 Rocket 4.2 05:00:38 10° NNW 05:06:28 74° W 05:12:17 10° S
S3M 4.0 05:02:14 10° S 05:08:34 88° ESE 05:14:52 10° N
ERS-2 2.5 05:09:35 10° N 05:13:09 43° WNW 05:13:30 41° W
USA 234 3.6 05:07:24 10° ENE 05:13:54 64° SE 05:19:54 12° SW
Cosmos 1553 Rocket 3.9 05:08:17 10° S 05:14:31 83° W 05:20:54 10° N
Okean 1-7 2.9 05:14:14 15° SSW 05:17:42 61° WNW 05:21:56 10° N
Cosmos 2221 Rocket 3.8 05:16:50 17° SSW 05:20:08 51° WNW 05:24:36 10° N
Meteor 2-10 Rocket 3.6 05:16:55 18° SW 05:20:23 49° WNW 05:25:23 10° N
PSLV R/B 4.4 05:22:35 10° N 05:26:10 27° WNW 05:26:47 26° W
Abrixas 2.3 05:26:55 45° WSW 05:27:38 72° S 05:30:31 10° ESE
Cosmos 1452 Rocket 3.9 05:28:43 19° SW 05:32:15 45° WNW 05:37:20 10° NNE
Thor Agena Rocket 3.9 05:27:41 10° S 05:32:34 41° W 05:37:27 10° NNW
Meteor 1-11 Rocket 4.1 05:27:47 10° N 05:33:47 74° ENE 05:39:39 10° SSE
ATLAS 5 CENTAUR R/B 2.9 05:32:52 21° WNW 05:35:26 33° NNW 05:40:21 10° NE
ATLAS 3B R/B 3.3 05:31:14 10° SSW 05:38:41 66° SE 05:45:51 10° NE
Cosmos 1741 Rocket 4.4 05:35:21 10° NW 05:40:11 38° WSW 05:45:01 10° S
Meteor 1-10 Rocket 4.2 05:34:52 10° SSW 05:40:28 85° WNW 05:46:12 10° N
Cosmos 1943 Rocket 3.1 05:38:12 19° W 05:40:59 29° NW 05:45:48 10° NNE
Cosmos 1709 Rocket 4.0 05:35:19 10° N 05:41:28 85° E 05:47:36 10° S
Meteor 1-28 Rocket 3.1 05:38:32 10° S 05:42:14 69° WSW 05:46:01 10° NNW
Cosmos 1300 Rocket 3.7 05:38:17 10° N 05:42:45 79° E 05:47:09 10° SSE
ADEOS II 3.2 05:43:17 10° N 05:47:26 24° WNW 05:50:33 15° WSW
CZ-4B R/B 4.4 05:47:46 10° N 05:52:07 24° WNW 05:55:55 12° WSW
Cosmos 1536 3.4 05:48:44 10° N 05:52:44 62° ENE 05:56:42 10° SSE
Tiangong 1 2.7 05:51:09 14° SW 05:52:54 22° S 05:55:16 10° SE
SKYMED 2 4.0 05:50:24 10° SSW 05:54:29 40° W 05:58:37 10° NNW
Okean-O 3.4 05:53:33 10° N 05:57:27 31° WNW 06:01:20 10° SW
Lacrosse 5 rocket 1.7 05:55:46 15° WNW 05:58:20 35° SW 06:01:39 10° SSE
Cosmos 1745 Rocket 4.5 05:54:22 10° NNW 05:59:54 36° W 06:05:24 10° SSW
CSL-04 Rocket 4.2 05:54:43 10° NNE 06:00:06 66° ESE 06:05:31 10° S
Radarsat Rocket 4.3 05:54:05 10° NNE 06:01:28 75° WNW 06:07:55 10° SSW
Cosmos 2315 Rocket 4.1 05:58:33 10° S 06:04:56 90° E 06:11:19 10° N
Cosmos 1674 Rocket 3.5 06:00:45 10° SSW 06:05:10 76° W 06:09:39 10° N
Cosmos 1378 Rocket 4.2 06:01:14 10° S 06:05:32 60° E 06:09:50 10° NNE
Cosmos 2082 3.7 06:01:43 10° NW 06:07:19 61° WSW 06:12:51 10° SSE
Cosmos 1602 3.9 06:04:01 10° NNW 06:07:53 50° W 06:11:42 10° S
Cosmos 1606 3.2 06:04:58 10° SW 06:08:39 39° WNW 06:12:22 10° N
USA 81 4.5 06:08:24 10° SSW 06:13:21 40° WNW 06:18:20 10° N
Meteor 1-27 Rocket 3.8 06:09:03 10° SSW 06:14:52 76° WNW 06:20:50 10° N
Cosmos 1782 3.8 06:15:31 10° SW 06:18:52 26° WNW 06:22:16 10° NNW
Lacrosse 5 2.7 06:14:21 10° W 06:19:07 39° NNW 06:23:54 10° NE
PAYLOAD A 3.9 06:15:05 10° NNE 06:19:50 87° E 06:24:42 10° SSW
Okean 1 Rocket 3.2 06:18:21 10° NNW 06:22:41 55° W 06:26:56 10° S
Cosmos 2263 Rocket 4.3 06:19:48 10° N 06:24:12 22° NE 06:28:33 10° E
Cosmos 2369 3.8 06:21:41 10° SSW 06:27:20 89° SE 06:33:03 10° NNE
